This is the latest recevied weather packets stored in our database for station/object W2TAO. If no packets are shown the sender has not sent any weather packets the latest 10 day(s).
| Time | Temp. | Humidity | Pressure | Rain* | Wind** | Luminosity | Snow |
|---|---|---|---|---|---|---|---|
| 1778065519 | 16.11° C | 81% | 1009.8 hPa | 0 mm | - | 71 W/m² | - |
| 1778065215 | 16.11° C | 80% | 1009.7 hPa | 0 mm | - | 40 W/m² | - |
| 1778064911 | 16.11° C | 79% | 1009.8 hPa | 0 mm | - | 17 W/m² | - |
| 1778064609 | 16.11° C | 79% | 1009.5 hPa | 0 mm | - | 19 W/m² | - |
| 1778064307 | 16.11° C | 78% | 1009.6 hPa | 0 mm | - | 26 W/m² | - |
| 1778064004 | 16.11° C | 78% | 1009.5 hPa | 0 mm | - | 27 W/m² | - |
| 1778063701 | 16.11° C | 77% | 1009.5 hPa | 0 mm | - | 14 W/m² | - |
| 1778063398 | 16.11° C | 77% | 1009.6 hPa | 0 mm | - | 12 W/m² | - |
| 1778063096 | 16.11° C | 77% | 1009.8 hPa | 0 mm | - | 8 W/m² | - |
| 1778062793 | 16.11° C | 77% | 1009.8 hPa | 0 mm | - | 6 W/m² | - |
| 1778062490 | 16.11° C | 76% | 1009.8 hPa | 0 mm | - | 8 W/m² | - |
| 1778062187 | 16.11° C | 76% | 1009.5 hPa | 0 mm | - | 6 W/m² | - |
| 1778061885 | 16.11° C | 76% | 1009.5 hPa | 0 mm | - | 3 W/m² | - |
| 1778061583 | 16.11° C | 76% | 1009.4 hPa | 0 mm | - | 2 W/m² | - |
| 1778061282 | 16.11° C | 75% | 1009.8 hPa | 0 mm | - | 2 W/m² | - |
| 1778060977 | 16.11° C | 75% | 1009.6 hPa | 0 mm | - | 1 W/m² | - |
| 1778060676 | 16.11° C | 75% | 1009.8 hPa | 0 mm | - | 1 W/m² | - |
| 1778060373 | 16.11° C | 75% | 1009.4 hPa | 0 mm | - | 0 W/m² | - |
| 1778060071 | 16.11° C | 74% | 1009.5 hPa | 0 mm | - | 0 W/m² | - |
| 1778059768 | 16.11° C | 74% | 1009.5 hPa | 0 mm | - | 0 W/m² | - |
| 1778059466 | 16.11° C | 73% | 1009.4 hPa | 0 mm | - | 0 W/m² | - |
| 1778059162 | 16.67° C | 73% | 1009.6 hPa | 0 mm | - | 0 W/m² | - |
| 1778058861 | 16.11° C | 73% | 1009.8 hPa | 0 mm | - | 0 W/m² | - |
| 1778058557 | 16.67° C | 72% | 1009.8 hPa | 0 mm | - | 0 W/m² | - |
| 1778058255 | 16.67° C | 72% | 1009.8 hPa | 0 mm | - | 0 W/m² | - |
* Rain latest hour (hover to see other rain measurements)
** Current wind speed in m/s (hover to see current wind gust speed)